2015-11-11 00:00:59 r, 19.92m,0000000001Hz,0000505013c,0000001.096s, 014.8C,00002191
2015-11-11 00:10:58 r, 19.91m,0000000001Hz,0000502949c,0000001.091s, 014.8C,00002191
2015-11-11 00:20:58 r, 20.09m,0000000001Hz,0000592485c,0000001.286s, 014.8C,00002191
2015-11-11 00:30:58 r, 20.12m,0000000001Hz,0000606790c,0000001.317s, 014.8C,00002191
2015-11-11 00:40:58 r, 19.87m,0000000001Hz,0000482819c,0000001.048s, 014.8C,00002191
2015-11-11 00:50:58 r, 20.11m,0000000000Hz,0000603813c,0000001.310s, 014.8C,00002191
2015-11-11 01:00:58 r, 20.04m,0000000001Hz,0000566410c,0000001.229s, 014.8C,00002191
2015-11-11 01:10:59 r, 20.02m,0000000001Hz,0000553923c,0000001.202s, 014.8C,00002191
2015-11-11 01:20:58 r, 19.92m,0000000001Hz,0000504742c,0000001.095s, 014.8C,00002191
2015-11-11 01:30:58 r, 19.98m,0000000001Hz,0000532860c,0000001.156s, 014.5C,00002191
2015-11-11 01:40:58 r, 19.90m,0000000001Hz,0000496419c,0000001.077s, 014.5C,00002191
2015-11-11 01:50:59 r, 20.02m,0000000001Hz,0000553007c,0000001.200s, 014.5C,00002191
2015-11-11 02:00:58 r, 19.96m,0000000001Hz,0000526230c,0000001.142s, 014.5C,00002191
2015-11-11 02:10:58 r, 19.95m,0000000001Hz,0000516273c,0000001.120s, 014.5C,00002191
2015-11-11 02:20:58 r, 19.98m,0000000001Hz,0000534820c,0000001.161s, 014.5C,00002191
2015-11-11 02:30:58 r, 20.07m,0000000001Hz,0000584647c,0000001.269s, 014.5C,00002191
2015-11-11 02:40:58 r, 20.10m,0000000001Hz,0000595440c,0000001.292s, 014.5C,00002191
2015-11-11 02:50:58 r, 20.15m,0000000001Hz,0000623052c,0000001.352s, 014.5C,00002191
2015-11-11 03:00:59 r, 20.07m,0000000000Hz,0000577758c,0000001.254s, 014.5C,00002191
2015-11-11 03:10:59 r, 20.22m,0000000001Hz,0000668266c,0000001.450s, 014.5C,00002191
2015-11-11 03:20:59 r, 20.13m,0000000001Hz,0000616520c,0000001.338s, 014.1C,00002191
2015-11-11 03:30:58 r, 20.07m,0000000001Hz,0000582592c,0000001.264s, 014.5C,00002191
2015-11-11 03:40:58 r, 20.15m,0000000001Hz,0000629785c,0000001.367s, 014.5C,00002191
2015-11-11 03:50:58 r, 20.07m,0000000000Hz,0000584718c,0000001.269s, 014.5C,00002191
2015-11-11 04:00:59 r, 20.17m,0000000001Hz,0000638686c,0000001.386s, 014.5C,00002191
2015-11-11 04:10:59 r, 20.04m,0000000001Hz,0000568902c,0000001.235s, 014.5C,00002191
2015-11-11 04:20:58 r, 19.99m,0000000001Hz,0000538398c,0000001.168s, 014.5C,00002191
2015-11-11 04:30:58 r, 20.08m,0000000001Hz,0000587586c,0000001.275s, 014.5C,00002191
2015-11-11 04:40:59 r, 20.27m,0000000000Hz,0000696748c,0000001.512s, 014.5C,00002191
2015-11-11 04:50:58 r, 20.18m,0000000001Hz,0000644219c,0000001.398s, 014.5C,00002191
2015-11-11 05:00:58 r, 20.32m,0000000000Hz,0000726894c,0000001.577s, 014.5C,00002191
2015-11-11 05:10:59 r, 20.30m,0000000001Hz,0000717176c,0000001.556s, 014.5C,00002191
2015-11-11 05:20:58 r, 20.19m,0000000001Hz,0000648913c,0000001.408s, 014.5C,00002191
2015-11-11 05:30:58 r, 20.27m,0000000001Hz,0000699204c,0000001.517s, 014.5C,00002191
2015-11-11 05:40:58 r, 20.26m,0000000001Hz,0000689394c,0000001.496s, 014.5C,00002191
2015-11-11 05:50:58 r, 20.10m,0000000001Hz,0000599788c,0000001.302s, 014.5C,00002191
2015-11-11 06:00:58 r, 20.10m,0000000001Hz,0000601022c,0000001.304s, 014.5C,00002191
2015-11-11 06:10:58 r, 19.88m,0000000001Hz,0000487440c,0000001.058s, 014.5C,00002191
2015-11-11 06:20:58 r, 19.37m,0000000001Hz,0000306344c,0000000.665s, 014.5C,00002191
2015-11-11 06:30:58 r, 18.40m,0000000003Hz,0000125805c,0000000.273s, 014.5C,00002191
2015-11-11 06:41:00 r, 17.04m,0000000013Hz,0000036082c,0000000.078s, 014.5C,00002191
2015-11-11 06:50:58 r, 15.17m,0000000071Hz,0000006419c,0000000.014s, 014.1C,00002191
2015-11-11 07:00:58 r, 13.29m,0000000406Hz,0000000000c,0000000.000s, 014.1C,00002191
2015-11-11 07:11:01 r, 11.43m,0000002257Hz,0000000000c,0000000.000s, 014.1C,00002191
2015-11-11 07:20:59 r, 09.87m,0000009549Hz,0000000000c,0000000.000s, 013.8C,00002191
2015-11-11 07:30:58 r, 08.71m,0000027722Hz,0000000000c,0000000.000s, 013.8C,00002191
2015-11-11 07:40:58 r, 07.78m,0000065286Hz,0000000000c,0000000.000s, 014.1C,00002191
2015-11-11 07:50:59 r, 07.19m,0000112626Hz,0000000000c,0000000.000s, 014.1C,00002191
2015-11-11 08:00:58 r, 06.78m,0000164732Hz,0000000000c,0000000.000s, 013.8C,00002191
2015-11-11 08:10:59 r, 06.28m,0000260069Hz,0000000000c,0000000.000s, 013.8C,00002191
2015-11-11 08:20:58 r, 06.06m,0000319552Hz,0000000000c,0000000.000s, 013.8C,00002191
2015-11-11 08:30:59 r, 00.00m,0000465939Hz,0000000000c,0000000.000s, 014.1C,00002191
2015-11-11 08:40:59 r, 00.00m,0000564066Hz,0000000000c,0000000.000s, 013.8C,00002191
2015-11-11 08:50:59 r, 00.00m,0000597094Hz,0000000000c,0000000.000s, 014.1C,00002191
2015-11-11 09:00:58 r, 00.00m,0000596981Hz,0000000000c,0000000.000s, 013.8C,00002191
2015-11-11 09:10:59 r, 00.00m,0000597050Hz,0000000000c,0000000.000s, 013.8C,00002191
2015-11-11 09:20:58 r, 00.00m,0000597064Hz,0000000000c,0000000.000s, 013.8C,00002191
2015-11-11 09:30:59 r, 00.00m,0000597020Hz,0000000000c,0000000.000s, 013.8C,00002191
2015-11-11 09:40:59 r, 00.00m,0000596968Hz,0000000000c,0000000.000s, 014.1C,00002191
2015-11-11 09:50:58 r, 00.00m,0000596972Hz,0000000000c,0000000.000s, 014.1C,00002191
2015-11-11 10:00:58 r, 00.00m,0000596910Hz,0000000000c,0000000.000s, 014.1C,00002191
2015-11-11 10:10:58 r, 00.00m,0000597014Hz,0000000000c,0000000.000s, 014.5C,00002191
2015-11-11 10:20:58 r, 00.00m,0000596959Hz,0000000000c,0000000.000s, 014.8C,00002191
2015-11-11 10:30:58 r, 00.00m,0000596927Hz,0000000000c,0000000.000s, 015.1C,00002191
2015-11-11 10:40:58 r, 00.00m,0000596784Hz,0000000000c,0000000.000s, 015.7C,00002191
2015-11-11 10:50:58 r, 00.00m,0000596753Hz,0000000000c,0000000.000s, 015.7C,00002191
2015-11-11 11:00:59 r, 00.00m,0000596669Hz,0000000000c,0000000.000s, 016.1C,00002191
2015-11-11 11:11:00 r, 00.00m,0000596658Hz,0000000000c,0000000.000s, 016.1C,00002191
2015-11-11 11:20:58 r, 00.00m,0000596737Hz,0000000000c,0000000.000s, 016.1C,00002191
2015-11-11 11:30:58 r, 00.00m,0000596714Hz,0000000000c,0000000.000s, 016.1C,00002191
2015-11-11 11:40:59 r, 00.00m,0000596767Hz,0000000000c,0000000.000s, 015.7C,00002191
2015-11-11 11:50:58 r, 00.00m,0000596653Hz,0000000000c,0000000.000s, 016.1C,00002191
2015-11-11 12:00:59 r, 00.00m,0000596792Hz,0000000000c,0000000.000s, 016.1C,00002191
2015-11-11 12:10:59 r, 00.00m,0000596704Hz,0000000000c,0000000.000s, 016.4C,00002191
2015-11-11 12:20:58 r, 00.00m,0000596610Hz,0000000000c,0000000.000s, 017.0C,00002191
2015-11-11 12:30:58 r, 00.00m,0000596649Hz,0000000000c,0000000.000s, 017.4C,00002191
2015-11-11 12:40:58 r, 00.00m,0000596726Hz,0000000000c,0000000.000s, 017.4C,00002191
2015-11-11 12:50:58 r, 00.00m,0000596486Hz,0000000000c,0000000.000s, 018.0C,00002191
2015-11-11 13:00:58 r, 00.00m,0000596522Hz,0000000000c,0000000.000s, 018.6C,00002191
2015-11-11 13:10:58 r, 00.00m,0000596495Hz,0000000000c,0000000.000s, 019.0C,00002191
2015-11-11 13:20:59 r, 00.00m,0000596456Hz,0000000000c,0000000.000s, 019.3C,00002191
2015-11-11 13:30:58 r, 00.00m,0000596499Hz,0000000000c,0000000.000s, 019.3C,00002191
2015-11-11 13:40:59 r, 00.00m,0000596569Hz,0000000000c,0000000.000s, 019.0C,00002191
2015-11-11 13:50:59 r, 00.00m,0000596464Hz,0000000000c,0000000.000s, 018.6C,00002191
2015-11-11 14:00:58 r, 00.00m,0000596521Hz,0000000000c,0000000.000s, 018.3C,00002191
2015-11-11 14:10:58 r, 00.00m,0000596523Hz,0000000000c,0000000.000s, 018.3C,00002191
2015-11-11 14:20:58 r, 00.00m,0000596568Hz,0000000000c,0000000.000s, 018.0C,00002191
2015-11-11 14:30:58 r, 00.00m,0000596606Hz,0000000000c,0000000.000s, 017.4C,00002191
2015-11-11 14:40:59 r, 00.00m,0000596524Hz,0000000000c,0000000.000s, 017.0C,00002191
2015-11-11 14:50:58 r, 00.00m,0000596573Hz,0000000000c,0000000.000s, 016.7C,00002191
2015-11-11 15:00:59 r, 00.00m,0000596699Hz,0000000000c,0000000.000s, 016.4C,00002191
2015-11-11 15:10:58 r, 00.00m,0000596734Hz,0000000000c,0000000.000s, 016.1C,00002191
2015-11-11 15:20:58 r, 00.00m,0000596713Hz,0000000000c,0000000.000s, 015.4C,00002191
2015-11-11 15:30:58 r, 00.00m,0000596747Hz,0000000000c,0000000.000s, 015.4C,00002191
2015-11-11 15:40:58 r, 00.00m,0000596891Hz,0000000000c,0000000.000s, 015.1C,00002191
2015-11-11 15:50:58 r, 00.00m,0000596872Hz,0000000000c,0000000.000s, 015.1C,00002191
2015-11-11 16:00:59 r, 00.00m,0000596947Hz,0000000000c,0000000.000s, 014.8C,00002191
2015-11-11 16:10:58 r, 00.00m,0000482665Hz,0000000000c,0000000.000s, 014.5C,00002191
2015-11-11 16:20:58 r, 06.06m,0000319281Hz,0000000000c,0000000.000s, 014.5C,00002191
2015-11-11 16:30:58 r, 06.56m,0000200050Hz,0000000000c,0000000.000s, 014.1C,00002191
2015-11-11 16:40:59 r, 07.03m,0000130152Hz,0000000000c,0000000.000s, 014.1C,00002191
2015-11-11 16:50:58 r, 07.91m,0000058139Hz,0000000000c,0000000.000s, 013.8C,00002191
2015-11-11 17:00:58 r, 08.91m,0000023091Hz,0000000000c,0000000.000s, 013.8C,00002191
2015-11-11 17:10:58 r, 10.46m,0000005540Hz,0000000000c,0000000.000s, 013.8C,00002191
2015-11-11 17:20:58 r, 12.52m,0000000832Hz,0000000000c,0000000.000s, 013.8C,00002191
2015-11-11 17:30:58 r, 14.41m,0000000146Hz,0000000000c,0000000.000s, 013.8C,00002191
2015-11-11 17:40:58 r, 16.27m,0000000026Hz,0000017691c,0000000.038s, 013.8C,00002191
2015-11-11 17:50:58 r, 17.85m,0000000006Hz,0000076154c,0000000.165s, 013.5C,00002191
2015-11-11 18:00:58 r, 19.01m,0000000002Hz,0000218880c,0000000.475s, 013.5C,00002191
2015-11-11 18:10:58 r, 19.60m,0000000001Hz,0000378102c,0000000.821s, 013.5C,00002191
2015-11-11 18:20:58 r, 19.77m,0000000001Hz,0000441717c,0000000.959s, 013.5C,00002191
2015-11-11 18:30:58 r, 19.80m,0000000001Hz,0000452347c,0000000.982s, 013.2C,00002191
2015-11-11 18:41:01 r, 19.86m,0000000001Hz,0000477231c,0000001.036s, 013.2C,00002191
2015-11-11 18:50:59 r, 19.83m,0000000001Hz,0000463763c,0000001.006s, 013.2C,00002191
2015-11-11 19:00:58 r, 19.88m,0000000001Hz,0000483633c,0000001.050s, 013.2C,00002191
2015-11-11 19:10:58 r, 19.83m,0000000001Hz,0000464862c,0000001.009s, 013.2C,00002191
2015-11-11 19:20:59 r, 19.79m,0000000001Hz,0000447232c,0000000.971s, 013.2C,00002191
2015-11-11 19:30:58 r, 19.78m,0000000001Hz,0000445379c,0000000.967s, 013.2C,00002191
2015-11-11 19:40:58 r, 19.77m,0000000001Hz,0000441564c,0000000.958s, 013.5C,00002191
2015-11-11 19:50:58 r, 19.76m,0000000001Hz,0000435667c,0000000.945s, 013.5C,00002191
2015-11-11 20:00:59 r, 19.71m,0000000002Hz,0000416617c,0000000.904s, 013.5C,00002191
2015-11-11 20:11:00 r, 19.76m,0000000001Hz,0000436817c,0000000.948s, 013.2C,00002191
2015-11-11 20:20:58 r, 19.79m,0000000001Hz,0000449276c,0000000.975s, 013.2C,00002191
2015-11-11 20:30:58 r, 19.89m,0000000001Hz,0000491501c,0000001.067s, 013.2C,00002191
2015-11-11 20:40:58 r, 19.83m,0000000001Hz,0000465435c,0000001.010s, 013.2C,00002191
2015-11-11 20:50:58 r, 19.81m,0000000001Hz,0000457860c,0000000.994s, 013.2C,00002191
2015-11-11 21:00:58 r, 19.81m,0000000001Hz,0000455617c,0000000.989s, 013.2C,00002191
2015-11-11 21:10:59 r, 19.85m,0000000001Hz,0000471416c,0000001.023s, 013.2C,00002191
2015-11-11 21:21:00 r, 19.79m,0000000001Hz,0000449087c,0000000.975s, 013.2C,00002191
2015-11-11 21:30:58 r, 19.87m,0000000001Hz,0000481804c,0000001.046s, 013.2C,00002191
2015-11-11 21:40:58 r, 19.78m,0000000001Hz,0000446285c,0000000.969s, 013.2C,00002191
2015-11-11 21:51:00 r, 19.77m,0000000001Hz,0000442360c,0000000.960s, 013.2C,00002191
2015-11-11 22:00:58 r, 19.78m,0000000001Hz,0000442415c,0000000.960s, 013.2C,00002191
2015-11-11 22:10:59 r, 19.81m,0000000001Hz,0000456791c,0000000.991s, 013.2C,00002191
2015-11-11 22:20:58 r, 19.78m,0000000001Hz,0000445450c,0000000.967s, 013.2C,00002191
2015-11-11 22:30:58 r, 19.76m,0000000001Hz,0000435615c,0000000.945s, 013.2C,00002191
2015-11-11 22:40:58 r, 19.77m,0000000001Hz,0000441556c,0000000.958s, 013.2C,00002191
2015-11-11 22:50:59 r, 19.77m,0000000001Hz,0000439637c,0000000.954s, 013.2C,00002191
2015-11-11 23:00:58 r, 19.83m,0000000001Hz,0000465429c,0000001.010s, 013.2C,00002191
2015-11-11 23:10:58 r, 19.84m,0000000001Hz,0000467457c,0000001.014s, 013.2C,00002191
2015-11-11 23:21:00 r, 19.88m,0000000001Hz,0000487535c,0000001.058s, 013.2C,00002191
2015-11-11 23:30:59 r, 19.95m,0000000001Hz,0000519379c,0000001.127s, 012.8C,00002191
2015-11-11 23:40:58 r, 19.89m,0000000001Hz,0000493466c,0000001.071s, 012.8C,00002191
2015-11-11 23:50:58 r, 19.86m,0000000001Hz,0000478282c,0000001.038s, 012.8C,00002191
